TimeEST,TemperatureF,Dew PointF,Humidity,Sea Level PressureIn,VisibilityMPH,Wind Direction,Wind SpeedMPH,Gust SpeedMPH,PrecipitationIn,Events,Conditions,WindDirDegrees,DateUTC
12:53 AM,34.0,19.9,56,29.95,10.0,NW,10.4,18.4,N/A,,Overcast,310,2013-03-05 05:53:00
2:53 AM,33.1,19.9,59,29.94,10.0,NNW,10.4,-,N/A,,Partly Cloudy,330,2013-03-05 07:53:00
3:53 AM,32.0,19.9,61,29.95,10.0,NW,9.2,-,N/A,,Mostly Cloudy,320,2013-03-05 08:53:00
4:53 AM,32.0,19.9,61,29.97,10.0,NW,6.9,-,N/A,,Partly Cloudy,320,2013-03-05 09:53:00
5:53 AM,30.0,19.9,66,29.99,10.0,Calm,Calm,-,N/A,,Clear,0,2013-03-05 10:53:00
6:53 AM,30.0,21.0,69,30.00,10.0,NW,3.5,-,N/A,,Clear,320,2013-03-05 11:53:00
7:53 AM,33.8,19.4,56,30.01,10.0,NNW,13.8,19.6,N/A,,Clear,340,2013-03-05 12:53:00
8:53 AM,36.0,21.0,55,30.03,10.0,North,6.9,-,N/A,,Clear,360,2013-03-05 13:53:00
9:53 AM,37.9,21.0,51,30.02,10.0,NNW,5.8,-,N/A,,Clear,330,2013-03-05 14:53:00
10:53 AM,41.0,21.9,47,30.01,10.0,North,9.2,-,N/A,,Clear,350,2013-03-05 15:53:00
11:53 AM,43.0,23.0,45,29.99,10.0,Calm,Calm,-,N/A,,Clear,0,2013-03-05 16:53:00
12:53 PM,46.0,23.0,40,29.98,10.0,Calm,Calm,-,N/A,,Clear,0,2013-03-05 17:53:00
1:53 PM,48.0,24.1,39,29.97,10.0,Variable,4.6,-,N/A,,Mostly Cloudy,0,2013-03-05 18:53:00
2:53 PM,48.9,24.1,38,29.96,10.0,Variable,3.5,-,N/A,,Clear,0,2013-03-05 19:53:00
3:53 PM,51.1,24.1,35,29.95,10.0,Calm,Calm,-,N/A,,Mostly Cloudy,0,2013-03-05 20:53:00
4:53 PM,48.0,23.0,37,29.94,10.0,East,4.6,-,N/A,,Clear,80,2013-03-05 21:53:00
5:53 PM,46.0,23.0,40,29.96,10.0,ENE,3.5,-,N/A,,Clear,70,2013-03-05 22:53:00
6:53 PM,42.1,24.1,49,29.98,10.0,East,3.5,-,N/A,,Clear,80,2013-03-05 23:53:00
7:53 PM,35.1,25.0,67,29.99,10.0,SE,3.5,-,N/A,,Mostly Cloudy,130,2013-03-06 00:53:00
8:53 PM,41.0,26.1,55,29.98,10.0,SSE,4.6,-,N/A,,Overcast,150,2013-03-06 01:53:00
9:53 PM,37.0,26.1,65,29.98,10.0,Calm,Calm,-,N/A,,Scattered Clouds,0,2013-03-06 02:53:00
10:53 PM,37.0,26.1,65,29.97,10.0,Calm,Calm,-,N/A,,Overcast,0,2013-03-06 03:53:00
11:53 PM,36.0,27.0,70,29.96,10.0,Calm,Calm,-,N/A,,Overcast,0,2013-03-06 04:53:00